Private Wetterstation Sandau
Wetterdaten: Montag, 19.03.2012
Datum Zeit Temp. A. Feuchte A. Luftdruck Regen Wind Richtung Richtung Taupunkt Windchill
19.03.2012 00:02 6,7 C 74 % 1017,9 hPa 0,0 l/m 16,6 km/h (3 Bft) W-NW 292 2,4 C 3,6 C
19.03.2012 00:07 6,7 C 74 % 1017,9 hPa 0,0 l/m 16,9 km/h (3 Bft) W 270 2,4 C 3,6 C
19.03.2012 00:12 6,6 C 74 % 1018,1 hPa 0,0 l/m 15,5 km/h (3 Bft) W-NW 292 2,3 C 3,7 C
19.03.2012 00:17 6,6 C 74 % 1018,0 hPa 0,0 l/m 13,7 km/h (3 Bft) W-NW 292 2,3 C 3,9 C
19.03.2012 00:22 6,6 C 75 % 1018,2 hPa 0,0 l/m 18,4 km/h (3 Bft) W 270 2,5 C 3,3 C
19.03.2012 00:27 6,6 C 75 % 1018,1 hPa 0,0 l/m 15,1 km/h (3 Bft) W-SW 247 2,5 C 3,7 C
19.03.2012 00:32 6,5 C 74 % 1018,3 hPa 0,0 l/m 33,8 km/h (5 Bft) NW 315 2,2 C 1,7 C
19.03.2012 00:37 6,5 C 74 % 1018,5 hPa 0,0 l/m 27,0 km/h (4 Bft) W-NW 292 2,2 C 2,3 C
19.03.2012 00:42 6,5 C 74 % 1018,3 hPa 0,0 l/m 15,1 km/h (3 Bft) W 270 2,2 C 3,6 C
19.03.2012 00:47 6,4 C 74 % 1018,5 hPa 0,0 l/m 22,0 km/h (4 Bft) W 270 2,1 C 2,6 C
19.03.2012 00:52 6,4 C 74 % 1018,6 hPa 0,0 l/m 20,5 km/h (4 Bft) NW 315 2,1 C 2,8 C
19.03.2012 00:57 6,4 C 74 % 1018,7 hPa 0,0 l/m 12,2 km/h (2 Bft) W-SW 247 2,1 C 3,9 C
19.03.2012 01:02 6,4 C 74 % 1018,9 hPa 0,0 l/m 10,1 km/h (2 Bft) W 270 2,1 C 4,3 C
19.03.2012 01:07 6,4 C 74 % 1019,1 hPa 0,0 l/m 15,1 km/h (3 Bft) W 270 2,1 C 3,5 C
19.03.2012 01:12 6,4 C 74 % 1018,9 hPa 0,0 l/m 19,4 km/h (3 Bft) W 270 2,1 C 2,9 C
19.03.2012 01:17 6,4 C 74 % 1018,9 hPa 0,0 l/m 15,8 km/h (3 Bft) W-NW 292 2,1 C 3,4 C
19.03.2012 01:22 6,4 C 75 % 1019,1 hPa 0,0 l/m 10,8 km/h (2 Bft) W 270 2,3 C 4,2 C
19.03.2012 01:27 6,3 C 75 % 1019,0 hPa 0,0 l/m 16,6 km/h (3 Bft) W 270 2,2 C 3,1 C
19.03.2012 01:32 6,3 C 75 % 1019,3 hPa 0,0 l/m 22,0 km/h (4 Bft) W-SW 247 2,2 C 2,5 C
19.03.2012 01:37 6,3 C 75 % 1019,4 hPa 0,0 l/m 18,7 km/h (3 Bft) S-SW 202 2,2 C 2,9 C
19.03.2012 01:42 6,3 C 75 % 1019,7 hPa 0,0 l/m 18,7 km/h (3 Bft) W-NW 292 2,2 C 2,9 C
19.03.2012 01:47 6,3 C 75 % 1019,6 hPa 0,0 l/m 14,4 km/h (3 Bft) W 270 2,2 C 3,4 C
19.03.2012 01:52 6,3 C 75 % 1019,6 hPa 0,0 l/m 14,8 km/h (3 Bft) W 270 2,2 C 3,4 C
19.03.2012 01:57 6,3 C 75 % 1019,8 hPa 0,0 l/m 15,1 km/h (3 Bft) W 270 2,2 C 3,3 C
19.03.2012 02:02 6,3 C 75 % 1019,8 hPa 0,0 l/m 10,8 km/h (2 Bft) NW 315 2,2 C 4,1 C
19.03.2012 02:07 6,3 C 75 % 1019,8 hPa 0,0 l/m 14,4 km/h (3 Bft) W-NW 292 2,2 C 3,4 C
19.03.2012 02:12 6,3 C 75 % 1019,8 hPa 0,0 l/m 10,8 km/h (2 Bft) W-NW 292 2,2 C 4,1 C
19.03.2012 02:17 6,3 C 75 % 1020,0 hPa 0,0 l/m 16,9 km/h (3 Bft) W-NW 292 2,2 C 3,1 C
19.03.2012 02:22 6,3 C 75 % 1020,1 hPa 0,0 l/m 22,0 km/h (4 Bft) W-NW 292 2,2 C 2,5 C
19.03.2012 02:27 6,2 C 75 % 1020,0 hPa 0,0 l/m 16,2 km/h (3 Bft) W 270 2,1 C 3,1 C
19.03.2012 02:32 6,2 C 75 % 1020,0 hPa 0,0 l/m 17,3 km/h (3 Bft) W-SW 247 2,1 C 2,9 C
19.03.2012 02:37 6,1 C 75 % 1020,2 hPa 0,0 l/m 16,9 km/h (3 Bft) NW 315 2,0 C 2,8 C
19.03.2012 02:42 6,1 C 75 % 1020,2 hPa 0,0 l/m 16,2 km/h (3 Bft) NW 315 2,0 C 2,9 C
19.03.2012 02:47 5,9 C 75 % 1020,4 hPa 0,0 l/m 15,5 km/h (3 Bft) W-NW 292 1,8 C 2,8 C
19.03.2012 02:52 5,9 C 75 % 1020,4 hPa 0,0 l/m 15,5 km/h (3 Bft) W-SW 247 1,8 C 2,8 C
19.03.2012 02:57 5,9 C 75 % 1020,4 hPa 0,0 l/m 16,6 km/h (3 Bft) W-NW 292 1,8 C 2,6 C
19.03.2012 03:02 5,9 C 75 % 1020,4 hPa 0,0 l/m 13,3 km/h (3 Bft) W-NW 292 1,8 C 3,1 C
19.03.2012 03:07 5,8 C 75 % 1020,4 hPa 0,0 l/m 15,1 km/h (3 Bft) W 270 1,7 C 2,7 C
19.03.2012 03:12 5,8 C 76 % 1020,4 hPa 0,0 l/m 11,9 km/h (2 Bft) W 270 1,9 C 3,2 C
19.03.2012 03:17 5,7 C 76 % 1020,7 hPa 0,0 l/m 11,5 km/h (2 Bft) W 270 1,8 C 3,2 C
19.03.2012 03:22 5,7 C 76 % 1020,7 hPa 0,0 l/m 10,1 km/h (2 Bft) W-NW 292 1,8 C 3,5 C
19.03.2012 03:27 5,7 C 76 % 1020,7 hPa 0,0 l/m 16,2 km/h (3 Bft) W 270 1,8 C 2,4 C
19.03.2012 03:32 5,6 C 76 % 1020,5 hPa 0,0 l/m 15,1 km/h (3 Bft) W 270 1,7 C 2,5 C
19.03.2012 03:37 5,6 C 76 % 1020,6 hPa 0,0 l/m 16,2 km/h (3 Bft) W-NW 292 1,7 C 2,3 C
19.03.2012 03:42 5,6 C 76 % 1020,7 hPa 0,0 l/m 17,6 km/h (3 Bft) W-NW 292 1,7 C 2,1 C
19.03.2012 03:47 5,6 C 76 % 1020,9 hPa 0,0 l/m 17,6 km/h (3 Bft) W-NW 292 1,7 C 2,1 C
19.03.2012 03:52 5,6 C 76 % 1021,0 hPa 0,0 l/m 16,6 km/h (3 Bft) W 270 1,7 C 2,3 C
19.03.2012 03:57 5,6 C 76 % 1021,2 hPa 0,0 l/m 10,1 km/h (2 Bft) W-NW 292 1,7 C 3,4 C
19.03.2012 04:02 5,6 C 76 % 1021,1 hPa 0,0 l/m 14,8 km/h (3 Bft) W-NW 292 1,7 C 2,5 C
19.03.2012 04:07 5,6 C 76 % 1021,2 hPa 0,0 l/m 15,8 km/h (3 Bft) W 270 1,7 C 2,4 C
19.03.2012 04:12 5,6 C 76 % 1021,4 hPa 0,0 l/m 9,4 km/h (2 Bft) N-NW 337 1,7 C 3,5 C
19.03.2012 04:17 5,6 C 77 % 1021,5 hPa 0,0 l/m 7,6 km/h (2 Bft) SW 225 1,9 C 3,9 C
19.03.2012 04:22 5,6 C 77 % 1021,6 hPa 0,0 l/m 8,3 km/h (2 Bft) N-NW 337 1,9 C 3,8 C
19.03.2012 04:27 5,5 C 77 % 1021,6 hPa 0,0 l/m 22,0 km/h (4 Bft) NW 315 1,8 C 1,5 C
19.03.2012 04:32 5,4 C 77 % 1021,8 hPa 0,0 l/m 9,7 km/h (2 Bft) W 270 1,7 C 3,2 C
19.03.2012 04:37 5,4 C 77 % 1021,9 hPa 0,0 l/m 12,2 km/h (2 Bft) W 270 1,7 C 2,7 C
19.03.2012 04:42 5,3 C 77 % 1021,9 hPa 0,0 l/m 6,5 km/h (2 Bft) NW 315 1,6 C 3,9 C
19.03.2012 04:47 5,4 C 77 % 1022,0 hPa 0,0 l/m 9,4 km/h (2 Bft) W-NW 292 1,7 C 3,3 C
19.03.2012 04:52 5,3 C 78 % 1022,0 hPa 0,0 l/m 13,0 km/h (3 Bft) W-NW 292 1,8 C 2,4 C
19.03.2012 04:57 5,3 C 78 % 1022,1 hPa 0,0 l/m 6,5 km/h (2 Bft) W 270 1,8 C 3,9 C
19.03.2012 05:02 5,3 C 78 % 1022,2 hPa 0,0 l/m 15,1 km/h (3 Bft) W-NW 292 1,8 C 2,1 C
19.03.2012 05:07 5,3 C 78 % 1022,2 hPa 0,0 l/m 5,8 km/h (2 Bft) W-SW 247 1,8 C 4,1 C
19.03.2012 05:12 5,3 C 78 % 1022,2 hPa 0,0 l/m 6,5 km/h (2 Bft) W-SW 247 1,8 C 3,9 C
19.03.2012 05:17 5,3 C 78 % 1022,5 hPa 0,0 l/m 8,6 km/h (2 Bft) NW 315 1,8 C 3,3 C
19.03.2012 05:22 5,3 C 78 % 1022,5 hPa 0,0 l/m 8,3 km/h (2 Bft) W-NW 292 1,8 C 3,4 C
19.03.2012 05:27 5,3 C 78 % 1022,7 hPa 0,0 l/m 12,6 km/h (3 Bft) W-NW 292 1,8 C 2,5 C
19.03.2012 05:32 5,3 C 78 % 1022,9 hPa 0,0 l/m 14,4 km/h (3 Bft) W-NW 292 1,8 C 2,2 C
19.03.2012 05:37 5,4 C 78 % 1022,8 hPa 0,0 l/m 9,7 km/h (2 Bft) W-NW 292 1,9 C 3,2 C
19.03.2012 05:42 5,3 C 78 % 1022,9 hPa 0,0 l/m 12,6 km/h (3 Bft) NW 315 1,8 C 2,5 C
19.03.2012 05:47 5,3 C 78 % 1023,0 hPa 0,0 l/m 8,3 km/h (2 Bft) NW 315 1,8 C 3,4 C
19.03.2012 05:52 5,2 C 78 % 1023,2 hPa 0,0 l/m 13,3 km/h (3 Bft) NW 315 1,7 C 2,3 C
19.03.2012 05:57 5,1 C 78 % 1023,2 hPa 0,0 l/m 16,2 km/h (3 Bft) N-NW 337 1,6 C 1,7 C
19.03.2012 06:02 4,9 C 77 % 1023,3 hPa 0,0 l/m 5,8 km/h (2 Bft) W-NW 292 1,2 C 3,7 C
19.03.2012 06:07 4,9 C 77 % 1023,3 hPa 0,0 l/m 9,4 km/h (2 Bft) W-NW 292 1,2 C 2,7 C
19.03.2012 06:12 4,9 C 77 % 1023,3 hPa 0,0 l/m 10,1 km/h (2 Bft) NW 315 1,2 C 2,5 C
19.03.2012 06:17 4,8 C 77 % 1023,7 hPa 0,0 l/m 5,4 km/h (1 Bft) W-NW 292 1,1 C 3,7 C
19.03.2012 06:22 4,6 C 77 % 1023,7 hPa 0,0 l/m 10,1 km/h (2 Bft) W 270 0,9 C 2,2 C
19.03.2012 06:27 4,5 C 77 % 1024,0 hPa 0,0 l/m 8,3 km/h (2 Bft) W 270 0,8 C 2,5 C
19.03.2012 06:32 4,5 C 77 % 1023,9 hPa 0,0 l/m 9,7 km/h (2 Bft) W 270 0,8 C 2,1 C
19.03.2012 06:37 4,5 C 77 % 1024,1 hPa 0,0 l/m 9,0 km/h (2 Bft) W 270 0,8 C 2,3 C
19.03.2012 06:42 4,5 C 77 % 1024,3 hPa 0,0 l/m 7,6 km/h (2 Bft) W-NW 292 0,8 C 2,7 C
19.03.2012 06:47 4,5 C 77 % 1024,4 hPa 0,0 l/m 6,1 km/h (2 Bft) W-NW 292 0,8 C 3,1 C
19.03.2012 06:52 4,5 C 77 % 1024,4 hPa 0,0 l/m 11,5 km/h (2 Bft) W 270 0,8 C 1,7 C
19.03.2012 06:57 4,5 C 76 % 1024,7 hPa 0,0 l/m 7,2 km/h (2 Bft) W-NW 292 0,6 C 2,8 C
19.03.2012 07:02 4,5 C 76 % 1024,7 hPa 0,0 l/m 11,9 km/h (2 Bft) W-NW 292 0,6 C 1,7 C
19.03.2012 07:07 4,5 C 76 % 1024,9 hPa 0,0 l/m 11,2 km/h (2 Bft) W-NW 292 0,6 C 1,8 C
19.03.2012 07:12 4,4 C 76 % 1024,8 hPa 0,0 l/m 11,9 km/h (2 Bft) N-NW 337 0,5 C 1,5 C
19.03.2012 07:17 4,5 C 76 % 1025,0 hPa 0,0 l/m 6,5 km/h (2 Bft) W 270 0,6 C 3,0 C
19.03.2012 07:22 4,4 C 76 % 1024,9 hPa 0,0 l/m 15,5 km/h (3 Bft) W-NW 292 0,5 C 0,9 C
19.03.2012 07:27 4,5 C 76 % 1024,9 hPa 0,0 l/m 13,0 km/h (3 Bft) W 270 0,6 C 1,5 C
19.03.2012 07:32 4,5 C 76 % 1025,1 hPa 0,0 l/m 8,3 km/h (2 Bft) W-NW 292 0,6 C 2,5 C
19.03.2012 07:37 4,6 C 76 % 1025,1 hPa 0,0 l/m 7,9 km/h (2 Bft) W 270 0,7 C 2,7 C
19.03.2012 07:42 4,7 C 76 % 1025,3 hPa 0,0 l/m 8,3 km/h (2 Bft) W-SW 247 0,8 C 2,7 C
19.03.2012 07:47 4,8 C 76 % 1025,5 hPa 0,0 l/m 11,5 km/h (2 Bft) W-SW 247 0,9 C 2,1 C
19.03.2012 07:52 4,9 C 76 % 1025,6 hPa 0,0 l/m 8,6 km/h (2 Bft) SW 225 1,0 C 2,9 C
19.03.2012 07:57 4,9 C 76 % 1025,6 hPa 0,0 l/m 15,5 km/h (3 Bft) NW 315 1,0 C 1,5 C
19.03.2012 08:02 4,9 C 75 % 1025,6 hPa 0,0 l/m 11,9 km/h (2 Bft) W-NW 292 0,8 C 2,2 C
19.03.2012 08:07 5,1 C 75 % 1025,8 hPa 0,0 l/m 7,2 km/h (2 Bft) W 270 1,0 C 3,5 C
19.03.2012 08:12 5,2 C 75 % 1026,0 hPa 0,0 l/m 12,2 km/h (2 Bft) W-SW 247 1,1 C 2,5 C
19.03.2012 08:17 5,2 C 75 % 1026,2 hPa 0,0 l/m 19,1 km/h (3 Bft) W-NW 292 1,1 C 1,4 C
19.03.2012 08:22 5,3 C 73 % 1026,1 hPa 0,0 l/m 14,4 km/h (3 Bft) W-NW 292 0,9 C 2,2 C
19.03.2012 08:27 5,3 C 73 % 1026,3 hPa 0,0 l/m 19,4 km/h (3 Bft) W-SW 247 0,9 C 1,5 C
19.03.2012 08:32 5,3 C 73 % 1026,3 hPa 0,0 l/m 24,5 km/h (4 Bft) W-NW 292 0,9 C 1,0 C
19.03.2012 08:37 5,4 C 73 % 1026,4 hPa 0,0 l/m 9,4 km/h (2 Bft) W 270 1,0 C 3,3 C
19.03.2012 08:42 5,4 C 72 % 1026,4 hPa 0,0 l/m 11,9 km/h (2 Bft) W-SW 247 0,8 C 2,8 C
19.03.2012 08:47 5,5 C 72 % 1026,5 hPa 0,0 l/m 12,6 km/h (3 Bft) N 360 0,9 C 2,8 C
19.03.2012 08:52 5,5 C 72 % 1026,4 hPa 0,0 l/m 7,6 km/h (2 Bft) N 360 0,9 C 3,8 C
19.03.2012 08:57 5,5 C 72 % 1026,5 hPa 0,0 l/m 12,6 km/h (3 Bft) W 270 0,9 C 2,8 C
19.03.2012 09:02 5,6 C 72 % 1026,7 hPa 0,0 l/m 21,2 km/h (4 Bft) W 270 1,0 C 1,7 C
19.03.2012 09:07 5,6 C 71 % 1026,6 hPa 0,0 l/m 14,8 km/h (3 Bft) W-NW 292 0,8 C 2,5 C
19.03.2012 09:12 5,8 C 71 % 1026,8 hPa 0,0 l/m 10,1 km/h (2 Bft) N-NO 22 1,0 C 3,6 C
19.03.2012 09:17 5,9 C 71 % 1026,8 hPa 0,0 l/m 13,3 km/h (3 Bft) W-NW 292 1,1 C 3,1 C
19.03.2012 09:22 5,9 C 71 % 1026,8 hPa 0,0 l/m 14,4 km/h (3 Bft) W-SW 247 1,1 C 2,9 C
19.03.2012 09:27 5,9 C 70 % 1026,8 hPa 0,0 l/m 20,5 km/h (4 Bft) NW 315 0,9 C 2,1 C
19.03.2012 09:32 6,0 C 70 % 1027,0 hPa 0,0 l/m 13,3 km/h (3 Bft) W-NW 292 1,0 C 3,2 C
19.03.2012 09:37 6,1 C 69 % 1026,9 hPa 0,0 l/m 22,0 km/h (4 Bft) W-NW 292 0,8 C 2,2 C
19.03.2012 09:42 6,2 C 70 % 1027,0 hPa 0,0 l/m 21,2 km/h (4 Bft) W 270 1,1 C 2,4 C
19.03.2012 09:47 6,3 C 70 % 1027,0 hPa 0,0 l/m 11,2 km/h (2 Bft) W-NW 292 1,2 C 4,0 C
19.03.2012 09:52 6,4 C 70 % 1026,9 hPa 0,0 l/m 15,1 km/h (3 Bft) W 270 1,3 C 3,5 C
19.03.2012 09:57 6,4 C 69 % 1027,0 hPa 0,0 l/m 23,4 km/h (4 Bft) W-NW 292 1,1 C 2,5 C
19.03.2012 10:02 6,4 C 69 % 1027,1 hPa 0,0 l/m 17,3 km/h (3 Bft) W 270 1,1 C 3,2 C
19.03.2012 10:07 6,6 C 68 % 1027,1 hPa 0,0 l/m 9,7 km/h (2 Bft) W-SW 247 1,1 C 4,6 C
19.03.2012 10:12 6,6 C 68 % 1027,2 hPa 0,0 l/m 19,8 km/h (3 Bft) W 270 1,1 C 3,1 C
19.03.2012 10:17 6,7 C 68 % 1027,3 hPa 0,0 l/m 22,0 km/h (4 Bft) W 270 1,2 C 3,0 C
19.03.2012 10:22 6,7 C 67 % 1027,2 hPa 0,0 l/m 9,7 km/h (2 Bft) W 270 1,0 C 4,8 C
19.03.2012 10:27 6,9 C 67 % 1027,2 hPa 0,0 l/m 12,2 km/h (2 Bft) NW 315 1,2 C 4,5 C
19.03.2012 10:32 6,9 C 67 % 1027,3 hPa 0,0 l/m 23,4 km/h (4 Bft) W-NW 292 1,2 C 3,1 C
19.03.2012 10:37 7,0 C 67 % 1027,5 hPa 0,0 l/m 16,2 km/h (3 Bft) W 270 1,3 C 4,1 C
19.03.2012 10:42 7,1 C 67 % 1027,5 hPa 0,0 l/m 15,1 km/h (3 Bft) W-NW 292 1,4 C 4,3 C
19.03.2012 10:47 7,2 C 66 % 1027,4 hPa 0,0 l/m 15,8 km/h (3 Bft) W-NW 292 1,3 C 4,4 C
19.03.2012 10:52 7,2 C 65 % 1027,6 hPa 0,0 l/m 12,2 km/h (2 Bft) W 270 1,1 C 4,9 C
19.03.2012 10:57 7,2 C 64 % 1027,7 hPa 0,0 l/m 22,0 km/h (4 Bft) NW 315 0,9 C 3,6 C
19.03.2012 11:02 7,3 C 65 % 1027,9 hPa 0,0 l/m 15,8 km/h (3 Bft) W 270 1,2 C 4,5 C
19.03.2012 11:07 7,4 C 65 % 1027,9 hPa 0,0 l/m 10,1 km/h (2 Bft) W 270 1,3 C 5,5 C
19.03.2012 11:12 7,4 C 65 % 1027,7 hPa 0,0 l/m 14,8 km/h (3 Bft) W 270 1,3 C 4,7 C
19.03.2012 11:17 7,4 C 64 % 1027,8 hPa 0,0 l/m 12,6 km/h (3 Bft) W-NW 292 1,0 C 5,1 C
19.03.2012 11:22 7,5 C 65 % 1027,9 hPa 0,0 l/m 20,2 km/h (4 Bft) W 270 1,4 C 4,2 C
19.03.2012 11:27 7,6 C 64 % 1028,0 hPa 0,0 l/m 15,5 km/h (3 Bft) SW 225 1,2 C 4,9 C
19.03.2012 11:32 7,7 C 64 % 1027,9 hPa 0,0 l/m 14,4 km/h (3 Bft) W 270 1,3 C 5,2 C
19.03.2012 11:37 7,8 C 63 % 1028,0 hPa 0,0 l/m 14,8 km/h (3 Bft) S-SO 157 1,2 C 5,2 C
19.03.2012 11:42 7,9 C 62 % 1028,0 hPa 0,0 l/m 13,3 km/h (3 Bft) N-NW 337 1,1 C 5,6 C
19.03.2012 11:47 7,9 C 62 % 1028,0 hPa 0,0 l/m 20,2 km/h (4 Bft) W-NW 292 1,1 C 4,7 C
19.03.2012 11:52 8,0 C 62 % 1028,1 hPa 0,0 l/m 18,0 km/h (3 Bft) W 270 1,2 C 5,1 C
19.03.2012 11:57 8,1 C 62 % 1028,1 hPa 0,0 l/m 11,2 km/h (2 Bft) W-SW 247 1,3 C 6,1 C
19.03.2012 12:02 8,2 C 61 % 1028,1 hPa 0,0 l/m 18,4 km/h (3 Bft) NW 315 1,1 C 5,3 C
19.03.2012 12:07 8,3 C 62 % 1028,2 hPa 0,0 l/m 9,0 km/h (2 Bft) W-SW 247 1,5 C 6,8 C
19.03.2012 12:12 8,5 C 61 % 1028,3 hPa 0,0 l/m 6,1 km/h (2 Bft) W 270 1,4 C 7,7 C
19.03.2012 12:17 8,7 C 60 % 1028,1 hPa 0,0 l/m 20,5 km/h (4 Bft) W-NW 292 1,4 C 5,7 C
19.03.2012 12:22 8,8 C 60 % 1028,1 hPa 0,0 l/m 6,8 km/h (2 Bft) NW 315 1,5 C 7,9 C
19.03.2012 12:27 8,9 C 59 % 1028,2 hPa 0,0 l/m 18,7 km/h (3 Bft) W 270 1,3 C 6,1 C
19.03.2012 12:32 9,0 C 58 % 1028,2 hPa 0,0 l/m 5,4 km/h (1 Bft) W-SW 247 1,2 C 8,5 C
19.03.2012 12:37 9,1 C 59 % 1028,1 hPa 0,0 l/m 11,5 km/h (2 Bft) W-SW 247 1,5 C 7,3 C
19.03.2012 12:42 9,3 C 58 % 1028,1 hPa 0,0 l/m 28,1 km/h (4 Bft) W-SW 247 1,5 C 5,8 C
19.03.2012 12:47 9,4 C 57 % 1028,1 hPa 0,0 l/m 14,0 km/h (3 Bft) W 270 1,3 C 7,3 C
19.03.2012 12:52 9,5 C 57 % 1028,2 hPa 0,0 l/m 15,8 km/h (3 Bft) W-NW 292 1,4 C 7,2 C
19.03.2012 12:57 9,5 C 56 % 1028,2 hPa 0,0 l/m 12,2 km/h (2 Bft) W-NW 292 1,2 C 7,7 C
19.03.2012 13:02 9,6 C 57 % 1028,3 hPa 0,0 l/m 8,6 km/h (2 Bft) W 270 1,5 C 8,4 C
19.03.2012 13:07 9,8 C 55 % 1028,2 hPa 0,0 l/m 8,3 km/h (2 Bft) NW 315 1,2 C 8,7 C
19.03.2012 13:12 9,9 C 55 % 1028,4 hPa 0,0 l/m 24,1 km/h (4 Bft) W 270 1,3 C 6,9 C
19.03.2012 13:17 9,9 C 54 % 1028,3 hPa 0,0 l/m 8,3 km/h (2 Bft) W 270 1,0 C 8,8 C
19.03.2012 13:22 10,1 C 54 % 1028,3 hPa 0,0 l/m 20,2 km/h (4 Bft) W-NW 292 1,2 C 10,1 C
19.03.2012 13:27 10,2 C 54 % 1028,3 hPa 0,0 l/m 6,1 km/h (2 Bft) O-SO 112 1,3 C 10,2 C
19.03.2012 13:32 10,4 C 53 % 1028,3 hPa 0,0 l/m 23,4 km/h (4 Bft) W 270 1,2 C 10,4 C
19.03.2012 13:37 10,4 C 53 % 1028,5 hPa 0,0 l/m 23,0 km/h (4 Bft) W 270 1,2 C 10,4 C
19.03.2012 13:42 10,6 C 53 % 1028,2 hPa 0,0 l/m 19,4 km/h (3 Bft) W 270 1,4 C 10,6 C
19.03.2012 13:47 10,8 C 53 % 1028,4 hPa 0,0 l/m 18,4 km/h (3 Bft) NW 315 1,6 C 10,8 C
19.03.2012 13:52 10,9 C 52 % 1028,5 hPa 0,0 l/m 15,1 km/h (3 Bft) W 270 1,4 C 10,9 C
19.03.2012 13:57 10,6 C 52 % 1028,3 hPa 0,0 l/m 7,6 km/h (2 Bft) W 270 1,2 C 10,6 C
19.03.2012 14:02 10,6 C 52 % 1028,2 hPa 0,0 l/m 14,0 km/h (3 Bft) N-NO 22 1,2 C 10,6 C
19.03.2012 14:07 10,8 C 52 % 1028,3 hPa 0,0 l/m 18,0 km/h (3 Bft) W-NW 292 1,3 C 10,8 C
19.03.2012 14:12 11,0 C 52 % 1028,3 hPa 0,0 l/m 19,8 km/h (3 Bft) W-NW 292 1,5 C 11,0 C
19.03.2012 14:17 11,3 C 51 % 1028,5 hPa 0,0 l/m 20,9 km/h (4 Bft) W-NW 292 1,5 C 11,3 C
19.03.2012 14:22 11,3 C 51 % 1028,3 hPa 0,0 l/m 14,4 km/h (3 Bft) W-NW 292 1,5 C 11,3 C
19.03.2012 14:27 11,1 C 51 % 1028,4 hPa 0,0 l/m 15,1 km/h (3 Bft) NW 315 1,4 C 11,1 C
19.03.2012 14:32 11,1 C 52 % 1028,5 hPa 0,0 l/m 12,6 km/h (3 Bft) W-NW 292 1,6 C 11,1 C
19.03.2012 14:37 11,0 C 52 % 1028,4 hPa 0,0 l/m 24,1 km/h (4 Bft) W 270 1,5 C 11,0 C
19.03.2012 14:42 10,9 C 52 % 1028,6 hPa 0,0 l/m 21,2 km/h (4 Bft) W-NW 292 1,4 C 10,9 C
19.03.2012 14:47 10,9 C 53 % 1028,6 hPa 0,0 l/m 19,1 km/h (3 Bft) W 270 1,7 C 10,9 C
19.03.2012 14:52 10,9 C 52 % 1028,5 hPa 0,0 l/m 14,8 km/h (3 Bft) W 270 1,4 C 10,9 C
19.03.2012 14:57 10,9 C 53 % 1028,5 hPa 0,0 l/m 17,6 km/h (3 Bft) W-NW 292 1,7 C 10,9 C
19.03.2012 15:02 11,2 C 52 % 1028,5 hPa 0,0 l/m 10,1 km/h (2 Bft) W 270 1,7 C 11,2 C
19.03.2012 15:07 11,4 C 52 % 1028,6 hPa 0,0 l/m 20,9 km/h (4 Bft) W 270 1,9 C 11,4 C
19.03.2012 15:12 11,3 C 52 % 1028,6 hPa 0,0 l/m 20,9 km/h (4 Bft) NW 315 1,8 C 11,3 C
19.03.2012 15:17 11,3 C 52 % 1028,7 hPa 0,0 l/m 13,3 km/h (3 Bft) W-SW 247 1,8 C 11,3 C
19.03.2012 15:22 11,3 C 52 % 1028,7 hPa 0,0 l/m 8,3 km/h (2 Bft) W 270 1,8 C 11,3 C
19.03.2012 15:27 11,2 C 51 % 1028,8 hPa 0,0 l/m 20,9 km/h (4 Bft) W-NW 292 1,4 C 11,2 C
19.03.2012 15:32 11,2 C 52 % 1028,8 hPa 0,0 l/m 20,5 km/h (4 Bft) W-NW 292 1,7 C 11,2 C
19.03.2012 15:37 11,1 C 52 % 1028,8 hPa 0,0 l/m 15,1 km/h (3 Bft) W 270 1,6 C 11,1 C
19.03.2012 15:42 11,1 C 53 % 1028,8 hPa 0,0 l/m 17,3 km/h (3 Bft) W 270 1,9 C 11,1 C
19.03.2012 15:47 11,2 C 53 % 1028,8 hPa 0,0 l/m 10,4 km/h (2 Bft) W 270 2,0 C 11,2 C
19.03.2012 15:52 11,2 C 52 % 1028,8 hPa 0,0 l/m 10,8 km/h (2 Bft) W-NW 292 1,7 C 11,2 C
19.03.2012 15:57 11,2 C 52 % 1028,8 hPa 0,0 l/m 7,2 km/h (2 Bft) W-SW 247 1,7 C 11,2 C
19.03.2012 16:02 11,2 C 52 % 1028,7 hPa 0,0 l/m 11,9 km/h (2 Bft) W-NW 292 1,7 C 11,2 C
19.03.2012 16:07 11,2 C 52 % 1028,8 hPa 0,0 l/m 12,2 km/h (2 Bft) W-SW 247 1,7 C 11,2 C
19.03.2012 16:12 11,3 C 51 % 1028,8 hPa 0,0 l/m 16,9 km/h (3 Bft) W-NW 292 1,5 C 11,3 C
19.03.2012 16:17 11,2 C 52 % 1028,8 hPa 0,0 l/m 9,4 km/h (2 Bft) W 270 1,7 C 11,2 C
19.03.2012 16:22 11,3 C 52 % 1028,7 hPa 0,0 l/m 21,6 km/h (4 Bft) W-NW 292 1,8 C 11,3 C
19.03.2012 16:27 11,4 C 51 % 1028,9 hPa 0,0 l/m 13,0 km/h (3 Bft) NW 315 1,6 C 11,4 C
19.03.2012 16:32 11,4 C 50 % 1028,8 hPa 0,0 l/m 18,4 km/h (3 Bft) W-NW 292 1,4 C 11,4 C
19.03.2012 16:37 11,4 C 51 % 1028,9 hPa 0,0 l/m 12,2 km/h (2 Bft) W 270 1,6 C 11,4 C
19.03.2012 16:42 11,4 C 51 % 1029,0 hPa 0,0 l/m 17,6 km/h (3 Bft) NW 315 1,6 C 11,4 C
19.03.2012 16:47 11,4 C 51 % 1028,9 hPa 0,0 l/m 20,9 km/h (4 Bft) W-NW 292 1,6 C 11,4 C
19.03.2012 16:52 11,3 C 51 % 1029,0 hPa 0,0 l/m 9,7 km/h (2 Bft) W-NW 292 1,5 C 11,3 C
19.03.2012 16:57 11,2 C 52 % 1029,1 hPa 0,0 l/m 17,3 km/h (3 Bft) W 270 1,7 C 11,2 C
19.03.2012 17:02 10,9 C 52 % 1029,2 hPa 0,0 l/m 13,3 km/h (3 Bft) W-SW 247 1,4 C 10,9 C
19.03.2012 17:07 10,8 C 53 % 1029,1 hPa 0,0 l/m 15,8 km/h (3 Bft) W-NW 292 1,6 C 10,8 C
19.03.2012 17:12 10,5 C 54 % 1029,2 hPa 0,0 l/m 20,9 km/h (4 Bft) W 270 1,6 C 10,5 C
19.03.2012 17:17 10,4 C 54 % 1029,4 hPa 0,0 l/m 7,2 km/h (2 Bft) NW 315 1,5 C 10,4 C
19.03.2012 17:22 10,4 C 54 % 1029,2 hPa 0,0 l/m 7,6 km/h (2 Bft) N-NW 337 1,5 C 10,4 C
19.03.2012 17:27 10,4 C 54 % 1029,2 hPa 0,0 l/m 9,4 km/h (2 Bft) NW 315 1,5 C 10,4 C
19.03.2012 17:32 10,3 C 54 % 1029,3 hPa 0,0 l/m 13,0 km/h (3 Bft) W 270 1,4 C 10,3 C
19.03.2012 17:37 10,2 C 55 % 1029,4 hPa 0,0 l/m 13,3 km/h (3 Bft) W-NW 292 1,6 C 10,2 C
19.03.2012 17:42 10,1 C 55 % 1029,5 hPa 0,0 l/m 7,9 km/h (2 Bft) W-NW 292 1,5 C 10,1 C
19.03.2012 17:47 10,1 C 55 % 1029,5 hPa 0,0 l/m 6,1 km/h (2 Bft) NW 315 1,5 C 10,1 C
19.03.2012 17:52 10,1 C 56 % 1029,5 hPa 0,0 l/m 13,7 km/h (3 Bft) W 270 1,7 C 10,1 C
19.03.2012 17:57 10,0 C 56 % 1029,6 hPa 0,0 l/m 19,1 km/h (3 Bft) W 270 1,6 C 7,5 C
19.03.2012 18:02 9,9 C 56 % 1029,7 hPa 0,0 l/m 16,9 km/h (3 Bft) W-SW 247 1,5 C 7,6 C
19.03.2012 18:07 9,9 C 56 % 1029,6 hPa 0,0 l/m 9,7 km/h (2 Bft) W-NW 292 1,5 C 8,6 C
19.03.2012 18:12 9,8 C 56 % 1029,7 hPa 0,0 l/m 13,3 km/h (3 Bft) W-SW 247 1,4 C 7,9 C
19.03.2012 18:17 9,6 C 57 % 1029,8 hPa 0,0 l/m 8,3 km/h (2 Bft) W-NW 292 1,5 C 8,5 C
19.03.2012 18:22 9,5 C 57 % 1029,9 hPa 0,0 l/m 5,8 km/h (2 Bft) W 270 1,4 C 9,0 C
19.03.2012 18:27 9,3 C 58 % 1029,9 hPa 0,0 l/m 10,1 km/h (2 Bft) NW 315 1,5 C 7,8 C
19.03.2012 18:32 9,3 C 58 % 1029,9 hPa 0,0 l/m 9,0 km/h (2 Bft) W-NW 292 1,5 C 8,0 C
19.03.2012 18:37 9,2 C 59 % 1029,8 hPa 0,0 l/m 10,1 km/h (2 Bft) W 270 1,6 C 7,7 C
19.03.2012 18:42 9,0 C 59 % 1029,9 hPa 0,0 l/m 11,9 km/h (2 Bft) W 270 1,4 C 7,1 C
19.03.2012 18:47 8,9 C 59 % 1030,0 hPa 0,0 l/m 4,0 km/h (1 Bft) W-SW 247 1,3 C 8,9 C
19.03.2012 18:52 8,8 C 60 % 1030,0 hPa 0,0 l/m 7,2 km/h (2 Bft) W 270 1,5 C 7,8 C
19.03.2012 18:57 8,6 C 60 % 1030,1 hPa 0,0 l/m 8,3 km/h (2 Bft) NW 315 1,3 C 7,3 C
19.03.2012 19:02 8,5 C 61 % 1030,1 hPa 0,0 l/m 4,7 km/h (1 Bft) W-NW 292 1,4 C 8,2 C
19.03.2012 19:07 8,4 C 61 % 1030,2 hPa 0,0 l/m 8,3 km/h (2 Bft) W-SW 247 1,3 C 7,1 C
19.03.2012 19:12 8,4 C 62 % 1030,3 hPa 0,0 l/m 10,4 km/h (2 Bft) W 270 1,6 C 6,6 C
19.03.2012 19:17 8,3 C 62 % 1030,3 hPa 0,0 l/m 7,6 km/h (2 Bft) W 270 1,5 C 7,1 C
19.03.2012 19:22 8,2 C 62 % 1030,3 hPa 0,0 l/m 8,6 km/h (2 Bft) W-NW 292 1,4 C 6,8 C
19.03.2012 19:27 8,1 C 62 % 1030,4 hPa 0,0 l/m 9,7 km/h (2 Bft) NW 315 1,3 C 6,4 C
19.03.2012 19:32 8,0 C 63 % 1030,5 hPa 0,0 l/m 6,8 km/h (2 Bft) W 270 1,4 C 7,0 C
19.03.2012 19:37 7,9 C 63 % 1030,6 hPa 0,0 l/m 6,5 km/h (2 Bft) W 270 1,3 C 6,9 C
19.03.2012 19:42 7,9 C 64 % 1030,7 hPa 0,0 l/m 3,2 km/h (1 Bft) W 270 1,5 C 7,9 C
19.03.2012 19:47 7,8 C 64 % 1030,8 hPa 0,0 l/m 5,4 km/h (1 Bft) W 270 1,4 C 7,1 C
19.03.2012 19:52 7,8 C 64 % 1030,9 hPa 0,0 l/m 7,6 km/h (2 Bft) W 270 1,4 C 6,5 C
19.03.2012 19:57 7,8 C 65 % 1030,9 hPa 0,0 l/m 6,1 km/h (2 Bft) W-NW 292 1,6 C 6,9 C
19.03.2012 20:02 7,7 C 65 % 1031,1 hPa 0,0 l/m 5,0 km/h (1 Bft) W-NW 292 1,5 C 7,1 C
19.03.2012 20:07 7,6 C 65 % 1031,0 hPa 0,0 l/m 8,3 km/h (2 Bft) NW 315 1,5 C 6,1 C
19.03.2012 20:12 7,6 C 65 % 1031,1 hPa 0,0 l/m 8,6 km/h (2 Bft) W-NW 292 1,5 C 6,1 C
19.03.2012 20:17 7,6 C 65 % 1031,1 hPa 0,0 l/m 14,4 km/h (3 Bft) W-NW 292 1,5 C 5,0 C
19.03.2012 20:22 7,5 C 65 % 1031,2 hPa 0,0 l/m 6,1 km/h (2 Bft) W-NW 292 1,4 C 6,6 C
19.03.2012 20:27 7,4 C 66 % 1031,1 hPa 0,0 l/m 4,3 km/h (1 Bft) W-SW 247 1,5 C 7,4 C
19.03.2012 20:32 7,4 C 66 % 1031,2 hPa 0,0 l/m 6,1 km/h (2 Bft) W-NW 292 1,5 C 6,5 C
19.03.2012 20:37 7,3 C 66 % 1031,2 hPa 0,0 l/m 7,9 km/h (2 Bft) W 270 1,4 C 5,9 C
19.03.2012 20:42 7,3 C 67 % 1031,2 hPa 0,0 l/m 4,7 km/h (1 Bft) W-NW 292 1,6 C 6,8 C
19.03.2012 20:47 7,2 C 67 % 1031,2 hPa 0,0 l/m 7,9 km/h (2 Bft) W-NW 292 1,5 C 5,7 C
19.03.2012 20:52 7,2 C 67 % 1031,2 hPa 0,0 l/m 7,2 km/h (2 Bft) W-NW 292 1,5 C 5,9 C
19.03.2012 20:57 7,1 C 68 % 1031,3 hPa 0,0 l/m 7,2 km/h (2 Bft) W 270 1,6 C 5,8 C
19.03.2012 21:02 7,1 C 68 % 1031,3 hPa 0,0 l/m 7,6 km/h (2 Bft) W-NW 292 1,6 C 5,7 C
19.03.2012 21:07 7,0 C 68 % 1031,2 hPa 0,0 l/m 6,1 km/h (2 Bft) W 270 1,5 C 6,0 C
19.03.2012 21:12 6,9 C 68 % 1031,3 hPa 0,0 l/m 6,8 km/h (2 Bft) W-NW 292 1,4 C 5,7 C
19.03.2012 21:17 6,9 C 68 % 1031,3 hPa 0,0 l/m 9,7 km/h (2 Bft) NW 315 1,4 C 5,0 C
19.03.2012 21:22 6,9 C 68 % 1031,5 hPa 0,0 l/m 5,0 km/h (1 Bft) W 270 1,4 C 6,2 C
19.03.2012 21:27 6,9 C 69 % 1031,4 hPa 0,0 l/m 3,2 km/h (1 Bft) W-SW 247 1,6 C 6,9 C
19.03.2012 21:32 6,8 C 69 % 1031,4 hPa 0,0 l/m 5,8 km/h (2 Bft) W 270 1,5 C 5,9 C
19.03.2012 21:37 6,7 C 69 % 1031,5 hPa 0,0 l/m 5,0 km/h (1 Bft) W-NW 292 1,4 C 6,0 C
19.03.2012 21:42 6,7 C 69 % 1031,5 hPa 0,0 l/m 5,4 km/h (1 Bft) W-SW 247 1,4 C 5,9 C
19.03.2012 21:47 6,6 C 70 % 1031,7 hPa 0,0 l/m 7,2 km/h (2 Bft) W-SW 247 1,5 C 5,2 C
19.03.2012 21:52 6,6 C 70 % 1031,7 hPa 0,0 l/m 3,2 km/h (1 Bft) W-SW 247 1,5 C 6,6 C
19.03.2012 21:57 6,6 C 70 % 1031,7 hPa 0,0 l/m 5,8 km/h (2 Bft) SW 225 1,5 C 5,6 C
19.03.2012 22:02 6,5 C 70 % 1031,7 hPa 0,0 l/m 7,6 km/h (2 Bft) W-SW 247 1,4 C 5,0 C
19.03.2012 22:07 6,4 C 70 % 1031,8 hPa 0,0 l/m 4,3 km/h (1 Bft) W 270 1,3 C 6,4 C
19.03.2012 22:12 6,4 C 70 % 1031,8 hPa 0,0 l/m 4,0 km/h (1 Bft) SW 225 1,3 C 6,4 C
19.03.2012 22:17 6,3 C 70 % 1031,9 hPa 0,0 l/m 5,0 km/h (1 Bft) W-SW 247 1,2 C 5,6 C
19.03.2012 22:22 6,3 C 70 % 1031,9 hPa 0,0 l/m 5,0 km/h (1 Bft) W 270 1,2 C 5,6 C
19.03.2012 22:27 6,2 C 71 % 1032,1 hPa 0,0 l/m 7,2 km/h (2 Bft) W-SW 247 1,3 C 4,8 C
19.03.2012 22:32 6,2 C 71 % 1032,1 hPa 0,0 l/m 6,8 km/h (2 Bft) W-SW 247 1,3 C 4,9 C
19.03.2012 22:37 6,1 C 71 % 1032,1 hPa 0,0 l/m 2,5 km/h (1 Bft) W 270 1,2 C 6,1 C
19.03.2012 22:42 6,1 C 71 % 1032,0 hPa 0,0 l/m 8,3 km/h (2 Bft) W-SW 247 1,2 C 4,4 C
19.03.2012 22:47 6,1 C 72 % 1032,2 hPa 0,0 l/m 4,0 km/h (1 Bft) W-NW 292 1,4 C 6,1 C
19.03.2012 22:52 6,0 C 72 % 1032,2 hPa 0,0 l/m 5,8 km/h (2 Bft) W-SW 247 1,3 C 4,9 C
19.03.2012 22:57 5,9 C 72 % 1032,3 hPa 0,0 l/m 6,8 km/h (2 Bft) SW 225 1,2 C 4,5 C
19.03.2012 23:02 5,9 C 72 % 1032,3 hPa 0,0 l/m 5,8 km/h (2 Bft) W 270 1,2 C 4,8 C
19.03.2012 23:07 5,9 C 72 % 1032,5 hPa 0,0 l/m 3,6 km/h (1 Bft) W 270 1,2 C 5,9 C
19.03.2012 23:12 5,9 C 72 % 1032,4 hPa 0,0 l/m 5,8 km/h (2 Bft) W-SW 247 1,2 C 4,8 C
19.03.2012 23:17 5,8 C 73 % 1032,4 hPa 0,0 l/m 4,7 km/h (1 Bft) W-SW 247 1,3 C 5,1 C
19.03.2012 23:22 5,8 C 73 % 1032,5 hPa 0,0 l/m 5,4 km/h (1 Bft) W-SW 247 1,3 C 4,8 C
19.03.2012 23:27 5,7 C 73 % 1032,5 hPa 0,0 l/m 9,7 km/h (2 Bft) W-SW 247 1,2 C 3,6 C
19.03.2012 23:32 5,6 C 73 % 1032,6 hPa 0,0 l/m 3,6 km/h (1 Bft) W 270 1,2 C 5,6 C
19.03.2012 23:37 5,6 C 73 % 1032,6 hPa 0,0 l/m 3,2 km/h (1 Bft) W 270 1,2 C 5,6 C
19.03.2012 23:42 5,6 C 73 % 1032,5 hPa 0,0 l/m 8,6 km/h (2 Bft) W-SW 247 1,2 C 3,7 C
19.03.2012 23:47 5,5 C 73 % 1032,6 hPa 0,0 l/m 7,6 km/h (2 Bft) W-SW 247 1,1 C 3,8 C
19.03.2012 23:52 5,5 C 73 % 1032,5 hPa 0,0 l/m 7,2 km/h (2 Bft) W-SW 247 1,1 C 3,9 C
19.03.2012 23:57 5,4 C 73 % 1032,6 hPa 0,0 l/m 5,0 km/h (1 Bft) W-SW 247 1,0 C 4,5 C
_ Min-Zeit 07:12 16:32 00:02 - 22:37 - - 07:12 07:22
Minimum _ 4,4 C 50 % 1017,9 hPa - 2,5 km/h (1 Bft) - - 0,5 C 0,9 C
_ Max-Zeit 15:07 04:52 23:32 00:02 00:32 - - 00:22 15:07
Maximum _ 11,4 C 78 % 1032,6 hPa 0,0 l/m 33,8 km/h
NW (5 Bft)
- - 2,5 C 11,4 C
Durchschnitt _ 7,4 C 67 % 1026,7 hPa #0,0 l/m 12,4 km/h (3 Bft) W - 1,5 C 5,6 C
(c) by David Heller